Time,TemperatureF,DewpointF,PressureIn,WindDirection,WindDirectionDegrees,WindSpeedMPH,WindSpeedGustMPH,Humidity,HourlyPrecipIn,Conditions,Clouds,dailyrainin,SoftwareType,DateUTC
2013-09-22 00:03:00,40.5,38.9,29.97,NE,50,0.0,0.0,94,0.00,,,0.00,Wunderground v.1.15,2013-09-22 05:03:00,
2013-09-22 00:09:00,40.3,38.7,29.97,NE,50,0.0,0.0,94,0.00,,,0.00,Wunderground v.1.15,2013-09-22 05:09:00,
2013-09-22 00:14:00,40.2,38.6,29.97,NE,50,0.0,0.0,94,0.00,,,0.00,Wunderground v.1.15,2013-09-22 05:14:00,
2013-09-22 00:20:00,39.9,38.3,29.98,NE,50,0.0,0.0,94,0.00,,,0.00,Wunderground v.1.15,2013-09-22 05:20:00,
2013-09-22 00:25:00,39.7,38.1,29.98,NE,50,0.0,0.0,94,0.00,,,0.00,Wunderground v.1.15,2013-09-22 05:25:00,
2013-09-22 00:31:00,39.5,37.9,29.98,NE,50,0.0,0.0,94,0.00,,,0.00,Wunderground v.1.15,2013-09-22 05:31:00,
2013-09-22 00:36:00,39.4,37.8,29.97,NE,50,0.0,0.0,94,0.00,,,0.00,Wunderground v.1.15,2013-09-22 05:36:00,
2013-09-22 00:42:00,39.1,37.5,29.97,NE,50,0.0,0.0,94,0.00,,,0.00,Wunderground v.1.15,2013-09-22 05:42:00,
2013-09-22 00:47:00,38.9,37.3,29.97,NE,50,0.0,0.0,94,0.00,,,0.00,Wunderground v.1.15,2013-09-22 05:47:00,
2013-09-22 00:52:00,38.9,37.3,29.97,NE,50,0.0,0.0,94,0.00,,,0.00,Wunderground v.1.15,2013-09-22 05:52:00,
2013-09-22 00:58:00,38.7,37.1,29.97,NE,50,0.0,0.0,94,0.00,,,0.00,Wunderground v.1.15,2013-09-22 05:58:00,
2013-09-22 01:03:00,38.7,37.1,29.98,NE,50,0.0,0.0,94,0.00,,,0.00,Wunderground v.1.15,2013-09-22 06:03:00,
2013-09-22 01:09:00,38.6,37.0,29.98,NE,50,0.0,0.0,94,0.00,,,0.00,Wunderground v.1.15,2013-09-22 06:09:00,
2013-09-22 01:15:00,38.4,36.8,29.98,NE,50,0.0,0.0,94,0.00,,,0.00,Wunderground v.1.15,2013-09-22 06:15:00,
2013-09-22 01:20:00,38.4,37.1,29.98,NE,50,0.0,0.0,95,0.00,,,0.00,Wunderground v.1.15,2013-09-22 06:20:00,
2013-09-22 01:26:00,38.3,37.0,29.99,NE,50,0.0,0.0,95,0.00,,,0.00,Wunderground v.1.15,2013-09-22 06:26:00,
2013-09-22 01:31:00,38.3,37.0,29.99,NE,50,0.0,0.0,95,0.00,,,0.00,Wunderground v.1.15,2013-09-22 06:31:00,
2013-09-22 01:36:00,38.2,36.6,29.99,NE,43,0.0,0.0,94,0.00,,,0.00,Wunderground v.1.15,2013-09-22 06:36:00,
2013-09-22 01:42:00,38.0,36.4,29.99,NE,43,0.0,0.0,94,0.00,,,0.00,Wunderground v.1.15,2013-09-22 06:42:00,
2013-09-22 01:47:00,37.8,36.5,29.99,NE,43,0.0,0.0,95,0.00,,,0.00,Wunderground v.1.15,2013-09-22 06:47:00,
2013-09-22 01:53:00,37.7,36.4,29.99,NE,43,0.0,0.0,95,0.00,,,0.00,Wunderground v.1.15,2013-09-22 06:53:00,
2013-09-22 01:58:00,37.6,36.3,29.99,NE,43,0.0,0.0,95,0.00,,,0.00,Wunderground v.1.15,2013-09-22 06:58:00,
2013-09-22 02:04:00,37.8,36.5,30.00,NE,43,0.0,0.0,95,0.00,,,0.00,Wunderground v.1.15,2013-09-22 07:04:00,
2013-09-22 02:09:00,37.7,36.4,30.00,NE,43,0.0,0.0,95,0.00,,,0.00,Wunderground v.1.15,2013-09-22 07:09:00,
2013-09-22 02:15:00,37.6,36.3,30.00,NE,43,0.0,0.0,95,0.00,,,0.00,Wunderground v.1.15,2013-09-22 07:15:00,
2013-09-22 02:20:00,37.5,36.2,30.00,NE,43,0.0,0.0,95,0.00,,,0.00,Wunderground v.1.15,2013-09-22 07:20:00,
2013-09-22 02:25:00,37.7,36.4,30.00,NE,43,0.0,0.0,95,0.00,,,0.00,Wunderground v.1.15,2013-09-22 07:25:00,
2013-09-22 02:30:00,37.5,36.2,30.00,NE,43,0.0,0.0,95,0.00,,,0.00,Wunderground v.1.15,2013-09-22 07:30:00,
2013-09-22 02:36:00,37.3,36.0,30.00,NE,43,0.0,0.0,95,0.00,,,0.00,Wunderground v.1.15,2013-09-22 07:36:00,
2013-09-22 02:42:00,37.1,35.5,30.00,NE,43,0.0,0.0,94,0.00,,,0.00,Wunderground v.1.15,2013-09-22 07:42:00,
2013-09-22 02:47:00,37.0,35.7,30.00,NE,43,0.0,0.0,95,0.00,,,0.00,Wunderground v.1.15,2013-09-22 07:47:00,
2013-09-22 02:52:00,37.0,35.7,30.00,NE,43,0.0,0.0,95,0.00,,,0.00,Wunderground v.1.15,2013-09-22 07:52:00,
2013-09-22 02:57:00,36.9,35.6,30.00,NE,43,0.0,0.0,95,0.00,,,0.00,Wunderground v.1.15,2013-09-22 07:57:00,
2013-09-22 03:03:00,36.8,35.5,30.00,NE,43,0.0,0.0,95,0.00,,,0.00,Wunderground v.1.15,2013-09-22 08:03:00,
2013-09-22 03:08:00,36.7,35.4,30.00,NE,43,0.0,0.0,95,0.00,,,0.00,Wunderground v.1.15,2013-09-22 08:08:00,
2013-09-22 03:14:00,36.7,35.4,30.00,NE,43,0.0,0.0,95,0.00,,,0.00,Wunderground v.1.15,2013-09-22 08:14:00,
2013-09-22 03:20:00,36.6,35.3,30.00,NE,43,0.0,0.0,95,0.00,,,0.00,Wunderground v.1.15,2013-09-22 08:20:00,
2013-09-22 03:25:00,36.5,35.2,30.00,NE,43,0.0,0.0,95,0.00,,,0.00,Wunderground v.1.15,2013-09-22 08:25:00,
2013-09-22 03:31:00,36.3,35.0,30.00,NE,43,0.0,0.0,95,0.00,,,0.00,Wunderground v.1.15,2013-09-22 08:31:00,
2013-09-22 03:36:00,36.2,34.9,30.00,NE,43,0.0,0.0,95,0.00,,,0.00,Wunderground v.1.15,2013-09-22 08:36:00,
2013-09-22 03:42:00,36.1,34.8,30.00,NE,43,0.0,0.0,95,0.00,,,0.00,Wunderground v.1.15,2013-09-22 08:42:00,
2013-09-22 03:47:00,35.9,34.6,30.00,NE,43,0.0,0.0,95,0.00,,,0.00,Wunderground v.1.15,2013-09-22 08:47:00,
2013-09-22 03:53:00,35.6,34.3,30.00,NE,43,0.0,0.0,95,0.00,,,0.00,Wunderground v.1.15,2013-09-22 08:53:00,
2013-09-22 03:58:00,35.3,34.0,30.00,NE,43,0.0,0.0,95,0.00,,,0.00,Wunderground v.1.15,2013-09-22 08:58:00,
2013-09-22 04:03:00,35.2,33.9,30.00,NE,43,0.0,0.0,95,0.00,,,0.00,Wunderground v.1.15,2013-09-22 09:03:00,
2013-09-22 04:09:00,35.3,34.0,30.01,NE,43,0.0,0.0,95,0.00,,,0.00,Wunderground v.1.15,2013-09-22 09:09:00,
2013-09-22 04:14:00,35.3,34.0,30.01,NE,43,0.0,0.0,95,0.00,,,0.00,Wunderground v.1.15,2013-09-22 09:14:00,
2013-09-22 04:20:00,35.2,33.9,30.01,NE,43,0.0,0.0,95,0.00,,,0.00,Wunderground v.1.15,2013-09-22 09:20:00,
2013-09-22 04:25:00,35.0,33.7,30.01,NE,43,0.0,0.0,95,0.00,,,0.00,Wunderground v.1.15,2013-09-22 09:25:00,
2013-09-22 04:30:00,34.8,33.5,30.01,NE,43,0.0,0.0,95,0.00,,,0.00,Wunderground v.1.15,2013-09-22 09:30:00,
2013-09-22 04:36:00,35.2,33.9,30.01,NE,43,0.0,0.0,95,0.00,,,0.00,Wunderground v.1.15,2013-09-22 09:36:00,
2013-09-22 04:41:00,35.2,33.9,30.01,NE,43,0.0,0.0,95,0.00,,,0.00,Wunderground v.1.15,2013-09-22 09:41:00,
2013-09-22 04:47:00,35.1,33.8,30.01,NE,43,0.0,0.0,95,0.00,,,0.00,Wunderground v.1.15,2013-09-22 09:47:00,
2013-09-22 04:52:00,34.9,33.6,30.01,NE,43,0.0,0.0,95,0.00,,,0.00,Wunderground v.1.15,2013-09-22 09:52:00,
2013-09-22 04:58:00,34.7,33.4,30.01,NE,43,0.0,0.0,95,0.00,,,0.00,Wunderground v.1.15,2013-09-22 09:58:00,
2013-09-22 05:03:00,34.6,33.3,30.02,NE,43,0.0,0.0,95,0.00,,,0.00,Wunderground v.1.15,2013-09-22 10:03:00,
2013-09-22 05:09:00,34.5,33.2,30.02,NE,43,0.0,0.0,95,0.00,,,0.00,Wunderground v.1.15,2013-09-22 10:09:00,
2013-09-22 05:14:00,34.5,33.2,30.02,NE,43,0.0,0.0,95,0.00,,,0.00,Wunderground v.1.15,2013-09-22 10:14:00,
2013-09-22 05:19:00,34.4,33.1,30.02,NE,43,0.0,0.0,95,0.00,,,0.00,Wunderground v.1.15,2013-09-22 10:19:00,
2013-09-22 05:25:00,34.3,33.0,30.02,NE,43,0.0,0.0,95,0.00,,,0.00,Wunderground v.1.15,2013-09-22 10:25:00,
2013-09-22 05:30:00,34.2,32.9,30.02,NE,43,0.0,0.0,95,0.00,,,0.00,Wunderground v.1.15,2013-09-22 10:30:00,
2013-09-22 05:36:00,34.2,32.9,30.02,NE,43,0.0,0.0,95,0.00,,,0.00,Wunderground v.1.15,2013-09-22 10:36:00,
2013-09-22 05:41:00,34.1,32.8,30.02,NE,43,0.0,0.0,95,0.00,,,0.00,Wunderground v.1.15,2013-09-22 10:41:00,
2013-09-22 05:46:00,34.0,32.7,30.02,NE,43,0.0,0.0,95,0.00,,,0.00,Wunderground v.1.15,2013-09-22 10:46:00,
2013-09-22 05:52:00,33.8,32.5,30.02,NE,43,0.0,0.0,95,0.00,,,0.00,Wunderground v.1.15,2013-09-22 10:52:00,
2013-09-22 05:57:00,33.7,32.4,30.02,NE,43,0.0,0.0,95,0.00,,,0.00,Wunderground v.1.15,2013-09-22 10:57:00,
2013-09-22 06:03:00,33.6,32.3,30.02,NE,43,0.0,0.0,95,0.00,,,0.00,Wunderground v.1.15,2013-09-22 11:03:00,
2013-09-22 06:08:00,33.4,32.1,30.03,NE,43,0.0,0.0,95,0.00,,,0.00,Wunderground v.1.15,2013-09-22 11:08:00,
2013-09-22 06:13:00,33.3,32.0,30.03,NE,43,0.0,0.0,95,0.00,,,0.00,Wunderground v.1.15,2013-09-22 11:13:00,
2013-09-22 06:19:00,33.2,31.9,30.03,NE,43,0.0,0.0,95,0.00,,,0.00,Wunderground v.1.15,2013-09-22 11:19:00,
2013-09-22 06:24:00,33.3,32.0,30.03,NE,43,0.0,0.0,95,0.00,,,0.00,Wunderground v.1.15,2013-09-22 11:24:00,
2013-09-22 06:30:00,33.4,32.1,30.03,NE,43,0.0,0.0,95,0.00,,,0.00,Wunderground v.1.15,2013-09-22 11:30:00,
2013-09-22 06:35:00,33.5,32.2,30.03,NE,43,0.0,0.0,95,0.00,,,0.00,Wunderground v.1.15,2013-09-22 11:35:00,
2013-09-22 06:41:00,33.5,32.2,30.04,NE,43,0.0,0.0,95,0.00,,,0.00,Wunderground v.1.15,2013-09-22 11:41:00,
2013-09-22 06:46:00,33.5,32.2,30.04,NE,43,0.0,0.0,95,0.00,,,0.00,Wunderground v.1.15,2013-09-22 11:46:00,
2013-09-22 06:52:00,33.4,32.1,30.04,NE,43,0.0,0.0,95,0.00,,,0.00,Wunderground v.1.15,2013-09-22 11:52:00,
2013-09-22 06:57:00,33.5,32.2,30.04,NE,43,0.0,0.0,95,0.00,,,0.00,Wunderground v.1.15,2013-09-22 11:57:00,
2013-09-22 07:02:00,33.7,32.4,30.04,NE,43,0.0,0.0,95,0.00,,,0.00,Wunderground v.1.15,2013-09-22 12:02:00,
2013-09-22 07:08:00,33.8,32.5,30.05,NE,43,0.0,0.0,95,0.00,,,0.00,Wunderground v.1.15,2013-09-22 12:08:00,
2013-09-22 07:13:00,33.9,32.6,30.05,NE,43,0.0,0.0,95,0.00,,,0.00,Wunderground v.1.15,2013-09-22 12:13:00,
2013-09-22 07:19:00,34.1,33.1,30.05,NE,43,0.0,0.0,96,0.00,,,0.00,Wunderground v.1.15,2013-09-22 12:19:00,
2013-09-22 07:24:00,34.2,33.2,30.05,NE,43,0.0,0.0,96,0.00,,,0.00,Wunderground v.1.15,2013-09-22 12:24:00,
2013-09-22 07:29:00,34.2,33.2,30.06,NE,43,0.0,0.0,96,0.00,,,0.00,Wunderground v.1.15,2013-09-22 12:29:00,
2013-09-22 07:35:00,34.3,33.3,30.06,NE,43,0.0,0.0,96,0.00,,,0.00,Wunderground v.1.15,2013-09-22 12:35:00,
2013-09-22 07:40:00,34.4,33.4,30.06,NE,43,0.0,0.0,96,0.00,,,0.00,Wunderground v.1.15,2013-09-22 12:40:00,
2013-09-22 07:46:00,34.5,33.5,30.06,NE,43,0.0,0.0,96,0.00,,,0.00,Wunderground v.1.15,2013-09-22 12:46:00,
2013-09-22 07:51:00,34.6,33.6,30.06,NE,43,0.0,0.0,96,0.00,,,0.00,Wunderground v.1.15,2013-09-22 12:51:00,
2013-09-22 07:56:00,34.8,33.8,30.06,NE,43,0.0,0.0,96,0.00,,,0.00,Wunderground v.1.15,2013-09-22 12:56:00,
2013-09-22 08:02:00,35.5,34.5,30.06,NE,43,0.0,0.0,96,0.00,,,0.00,Wunderground v.1.15,2013-09-22 13:02:00,
2013-09-22 08:07:00,35.9,34.9,30.06,NE,43,0.0,0.0,96,0.00,,,0.00,Wunderground v.1.15,2013-09-22 13:07:00,
2013-09-22 08:12:00,36.1,35.1,30.06,NE,43,0.0,0.0,96,0.00,,,0.00,Wunderground v.1.15,2013-09-22 13:12:00,
2013-09-22 08:18:00,36.5,35.5,30.06,NE,43,0.0,0.0,96,0.00,,,0.00,Wunderground v.1.15,2013-09-22 13:18:00,
2013-09-22 08:23:00,37.2,36.2,30.06,NE,43,0.0,0.0,96,0.00,,,0.00,Wunderground v.1.15,2013-09-22 13:23:00,
2013-09-22 08:29:00,38.1,37.1,30.07,NE,43,0.0,0.0,96,0.00,,,0.00,Wunderground v.1.15,2013-09-22 13:29:00,
2013-09-22 08:34:00,38.9,37.9,30.07,NE,43,0.0,0.0,96,0.00,,,0.00,Wunderground v.1.15,2013-09-22 13:34:00,
2013-09-22 08:40:00,39.9,38.9,30.07,SE,128,0.0,0.0,96,0.00,,,0.00,Wunderground v.1.15,2013-09-22 13:40:00,
2013-09-22 08:45:00,40.7,39.6,30.07,ESE,109,0.0,0.0,96,0.00,,,0.00,Wunderground v.1.15,2013-09-22 13:45:00,
2013-09-22 08:50:00,41.6,40.5,30.07,ESE,103,0.0,0.0,96,0.00,,,0.00,Wunderground v.1.15,2013-09-22 13:50:00,
2013-09-22 08:56:00,42.4,41.3,30.07,East,87,0.0,0.0,96,0.00,,,0.00,Wunderground v.1.15,2013-09-22 13:56:00,
2013-09-22 09:01:00,43.1,42.0,30.07,ESE,121,0.0,0.0,96,0.00,,,0.00,Wunderground v.1.15,2013-09-22 14:01:00,
2013-09-22 09:06:00,44.0,42.9,30.07,ESE,117,0.0,0.0,96,0.00,,,0.00,Wunderground v.1.15,2013-09-22 14:06:00,
2013-09-22 09:12:00,45.1,43.5,30.07,ESE,109,0.0,0.0,94,0.00,,,0.00,Wunderground v.1.15,2013-09-22 14:12:00,
2013-09-22 09:17:00,45.7,43.2,30.08,ESE,114,0.0,0.0,91,0.00,,,0.00,Wunderground v.1.15,2013-09-22 14:17:00,
2013-09-22 09:23:00,46.5,43.4,30.08,SE,126,0.0,0.0,89,0.00,,,0.00,Wunderground v.1.15,2013-09-22 14:23:00,
2013-09-22 09:28:00,47.0,43.0,30.08,SSE,149,0.0,0.0,86,0.00,,,0.00,Wunderground v.1.15,2013-09-22 14:28:00,
2013-09-22 09:33:00,47.4,42.5,30.08,SE,134,0.0,0.0,83,0.00,,,0.00,Wunderground v.1.15,2013-09-22 14:33:00,
2013-09-22 09:39:00,48.0,43.1,30.08,ESE,113,0.0,0.0,83,0.00,,,0.00,Wunderground v.1.15,2013-09-22 14:39:00,
2013-09-22 09:44:00,48.7,43.1,30.08,ESE,114,0.0,0.0,81,0.00,,,0.00,Wunderground v.1.15,2013-09-22 14:44:00,
2013-09-22 09:50:00,49.4,43.5,30.08,East,82,0.0,0.0,80,0.00,,,0.00,Wunderground v.1.15,2013-09-22 14:50:00,
2013-09-22 09:55:00,49.5,42.2,30.07,ESE,111,0.0,0.0,76,0.00,,,0.00,Wunderground v.1.15,2013-09-22 14:55:00,
2013-09-22 10:01:00,49.7,42.1,30.08,East,90,0.0,0.0,75,0.00,,,0.00,Wunderground v.1.15,2013-09-22 15:01:00,
2013-09-22 10:06:00,50.0,43.4,30.08,East,94,0.0,0.0,78,0.00,,,0.00,Wunderground v.1.15,2013-09-22 15:06:00,
2013-09-22 10:12:00,50.7,43.1,30.08,ESE,103,0.0,0.0,75,0.00,,,0.00,Wunderground v.1.15,2013-09-22 15:12:00,
2013-09-22 10:17:00,50.7,42.7,30.08,SE,142,0.0,0.0,74,0.00,,,0.00,Wunderground v.1.15,2013-09-22 15:17:00,
2013-09-22 10:23:00,50.9,42.2,30.08,SSW,204,0.0,0.0,72,0.00,,,0.00,Wunderground v.1.15,2013-09-22 15:23:00,
2013-09-22 10:28:00,51.0,41.9,30.08,ESE,116,0.0,0.0,71,0.00,,,0.00,Wunderground v.1.15,2013-09-22 15:28:00,
2013-09-22 10:33:00,51.0,42.6,30.08,ESE,123,0.0,0.0,73,0.00,,,0.00,Wunderground v.1.15,2013-09-22 15:33:00,
2013-09-22 10:39:00,51.1,41.7,30.08,SE,127,0.0,0.0,70,0.00,,,0.00,Wunderground v.1.15,2013-09-22 15:39:00,
2013-09-22 10:44:00,51.2,41.7,30.08,ESE,122,0.0,0.0,70,0.00,,,0.00,Wunderground v.1.15,2013-09-22 15:44:00,
2013-09-22 10:50:00,51.1,42.4,30.08,SE,136,0.0,0.0,72,0.00,,,0.00,Wunderground v.1.15,2013-09-22 15:50:00,
2013-09-22 10:55:00,51.4,42.3,30.08,SSE,154,0.0,0.0,71,0.00,,,0.00,Wunderground v.1.15,2013-09-22 15:55:00,
2013-09-22 11:01:00,51.8,41.9,30.08,ESE,123,0.0,0.0,69,0.00,,,0.00,Wunderground v.1.15,2013-09-22 16:01:00,
2013-09-22 11:06:00,51.8,42.7,30.07,ESE,122,0.0,0.0,71,0.00,,,0.00,Wunderground v.1.15,2013-09-22 16:06:00,
2013-09-22 11:11:00,52.0,42.1,30.07,ESE,119,0.0,0.0,69,0.00,,,0.00,Wunderground v.1.15,2013-09-22 16:11:00,
2013-09-22 11:17:00,52.1,42.6,30.08,ESE,123,0.0,0.0,70,0.00,,,0.00,Wunderground v.1.15,2013-09-22 16:17:00,
2013-09-22 11:22:00,52.0,43.3,30.08,East,96,0.0,0.0,72,0.00,,,0.00,Wunderground v.1.15,2013-09-22 16:22:00,
2013-09-22 11:27:00,52.4,43.3,30.07,SSE,148,0.0,0.0,71,0.00,,,0.00,Wunderground v.1.15,2013-09-22 16:27:00,
2013-09-22 11:33:00,52.7,43.2,30.07,SW,229,0.0,0.0,70,0.00,,,0.00,Wunderground v.1.15,2013-09-22 16:33:00,
2013-09-22 11:38:00,52.5,43.0,30.07,SSW,203,0.0,0.0,70,0.00,,,0.00,Wunderground v.1.15,2013-09-22 16:38:00,
2013-09-22 11:43:00,52.8,44.0,30.07,East,96,0.0,0.0,72,0.00,,,0.00,Wunderground v.1.15,2013-09-22 16:43:00,
2013-09-22 11:49:00,53.1,43.9,30.07,SSE,156,0.0,0.0,71,0.00,,,0.00,Wunderground v.1.15,2013-09-22 16:49:00,
2013-09-22 11:55:00,53.3,43.8,30.07,SSE,157,0.0,0.0,70,0.00,,,0.00,Wunderground v.1.15,2013-09-22 16:55:00,
2013-09-22 12:01:00,53.5,44.3,30.07,ESE,109,0.0,0.0,71,0.00,,,0.00,Wunderground v.1.15,2013-09-22 17:01:00,
2013-09-22 12:06:00,54.0,44.1,30.06,WSW,258,0.0,0.0,69,0.00,,,0.00,Wunderground v.1.15,2013-09-22 17:06:00,
2013-09-22 12:12:00,54.0,44.8,30.06,SE,141,0.0,0.0,71,0.00,,,0.00,Wunderground v.1.15,2013-09-22 17:12:00,
2013-09-22 12:17:00,54.3,44.0,30.06,SE,146,0.0,0.0,68,0.00,,,0.00,Wunderground v.1.15,2013-09-22 17:17:00,
2013-09-22 12:22:00,54.6,44.2,30.06,SE,138,0.0,0.0,68,0.00,,,0.00,Wunderground v.1.15,2013-09-22 17:22:00,
2013-09-22 12:28:00,54.9,44.1,30.06,South,180,0.0,0.0,67,0.00,,,0.00,Wunderground v.1.15,2013-09-22 17:28:00,
2013-09-22 12:33:00,55.0,44.2,30.05,East,101,0.0,0.0,67,0.00,,,0.00,Wunderground v.1.15,2013-09-22 17:33:00,
2013-09-22 12:39:00,55.8,45.0,30.05,ESE,119,0.0,0.0,67,0.00,,,0.00,Wunderground v.1.15,2013-09-22 17:39:00,
2013-09-22 12:44:00,55.9,44.7,30.05,SSW,207,0.0,0.0,66,0.00,,,0.00,Wunderground v.1.15,2013-09-22 17:44:00,
2013-09-22 12:50:00,55.5,44.3,30.05,SSW,209,0.0,0.0,66,0.00,,,0.00,Wunderground v.1.15,2013-09-22 17:50:00,
2013-09-22 12:55:00,55.5,44.3,30.05,SE,133,0.0,0.0,66,0.00,,,0.00,Wunderground v.1.15,2013-09-22 17:55:00,
2013-09-22 13:01:00,55.7,44.5,30.05,South,186,0.0,0.0,66,0.00,,,0.00,Wunderground v.1.15,2013-09-22 18:01:00,
2013-09-22 13:06:00,55.9,43.9,30.05,ESE,109,0.0,0.0,64,0.00,,,0.00,Wunderground v.1.15,2013-09-22 18:06:00,
2013-09-22 13:11:00,56.0,42.7,30.04,South,171,0.0,0.0,61,0.00,,,0.00,Wunderground v.1.15,2013-09-22 18:11:00,
2013-09-22 13:16:00,56.1,43.7,30.04,ESE,110,0.0,0.0,63,0.00,,,0.00,Wunderground v.1.15,2013-09-22 18:16:00,
2013-09-22 13:22:00,56.6,45.0,30.04,ENE,78,0.0,0.0,65,0.00,,,0.00,Wunderground v.1.15,2013-09-22 18:22:00,
2013-09-22 13:27:00,56.6,45.8,30.04,East,89,0.0,0.0,67,0.00,,,0.00,Wunderground v.1.15,2013-09-22 18:27:00,
2013-09-22 13:33:00,57.1,46.2,30.03,SE,128,0.0,0.0,67,0.00,,,0.00,Wunderground v.1.15,2013-09-22 18:33:00,
2013-09-22 13:38:00,57.6,46.7,30.03,East,82,0.0,0.0,67,0.00,,,0.00,Wunderground v.1.15,2013-09-22 18:38:00,
2013-09-22 13:43:00,57.9,44.5,30.03,East,80,0.0,0.0,61,0.00,,,0.00,Wunderground v.1.15,2013-09-22 18:43:00,
2013-09-22 13:49:00,58.1,45.6,30.03,ESE,123,0.0,0.0,63,0.00,,,0.00,Wunderground v.1.15,2013-09-22 18:49:00,
2013-09-22 13:54:00,58.2,46.1,30.03,ENE,63,0.0,0.0,64,0.00,,,0.00,Wunderground v.1.15,2013-09-22 18:54:00,
2013-09-22 14:00:00,58.4,46.3,30.03,South,175,0.0,0.0,64,0.00,,,0.00,Wunderground v.1.15,2013-09-22 19:00:00,
2013-09-22 14:05:00,58.5,45.9,30.03,ESE,102,0.0,0.0,63,0.00,,,0.00,Wunderground v.1.15,2013-09-22 19:05:00,
2013-09-22 14:11:00,58.5,44.7,30.02,East,86,0.0,0.0,60,0.00,,,0.00,Wunderground v.1.15,2013-09-22 19:11:00,
2013-09-22 14:16:00,58.5,45.1,30.02,ESE,115,0.0,0.0,61,0.00,,,0.00,Wunderground v.1.15,2013-09-22 19:16:00,
2013-09-22 14:22:00,58.6,45.2,30.02,ESE,123,0.0,0.0,61,0.00,,,0.00,Wunderground v.1.15,2013-09-22 19:22:00,
2013-09-22 14:28:00,58.8,45.4,30.02,ENE,68,0.0,0.0,61,0.00,,,0.00,Wunderground v.1.15,2013-09-22 19:28:00,
2013-09-22 14:33:00,59.1,46.9,30.02,ESE,110,0.0,0.0,64,0.00,,,0.00,Wunderground v.1.15,2013-09-22 19:33:00,
2013-09-22 14:39:00,59.3,45.0,30.01,ESE,109,0.0,0.0,59,0.00,,,0.00,Wunderground v.1.15,2013-09-22 19:39:00,
2013-09-22 14:44:00,59.4,45.1,30.01,SE,128,0.0,0.0,59,0.00,,,0.00,Wunderground v.1.15,2013-09-22 19:44:00,
2013-09-22 14:49:00,59.4,45.5,30.01,ENE,66,0.0,0.0,60,0.00,,,0.00,Wunderground v.1.15,2013-09-22 19:49:00,
2013-09-22 14:55:00,59.4,45.1,30.01,ESE,113,0.0,0.0,59,0.00,,,0.00,Wunderground v.1.15,2013-09-22 19:55:00,
2013-09-22 15:00:00,59.4,45.1,30.01,SE,136,0.0,0.0,59,0.00,,,0.00,Wunderground v.1.15,2013-09-22 20:00:00,
2013-09-22 15:06:00,59.6,45.2,30.00,ESE,111,0.0,0.0,59,0.00,,,0.00,Wunderground v.1.15,2013-09-22 20:06:00,
2013-09-22 15:11:00,59.9,45.5,30.00,SE,127,0.0,0.0,59,0.00,,,0.00,Wunderground v.1.15,2013-09-22 20:11:00,
2013-09-22 15:17:00,60.1,47.0,30.00,East,87,0.0,0.0,62,0.00,,,0.00,Wunderground v.1.15,2013-09-22 20:17:00,
2013-09-22 15:22:00,60.4,45.5,30.00,East,92,0.0,0.0,58,0.00,,,0.00,Wunderground v.1.15,2013-09-22 20:22:00,
2013-09-22 15:27:00,60.4,45.5,30.00,ENE,78,0.0,0.0,58,0.00,,,0.00,Wunderground v.1.15,2013-09-22 20:27:00,
2013-09-22 15:33:00,60.7,46.3,30.00,SSE,163,0.0,0.0,59,0.00,,,0.00,Wunderground v.1.15,2013-09-22 20:33:00,
2013-09-22 15:38:00,60.7,45.4,29.99,ESE,120,0.0,0.0,57,0.00,,,0.00,Wunderground v.1.15,2013-09-22 20:38:00,
2013-09-22 15:44:00,60.4,45.1,29.99,ESE,117,0.0,0.0,57,0.00,,,0.00,Wunderground v.1.15,2013-09-22 20:44:00,
2013-09-22 15:49:00,60.5,45.6,29.99,SSE,167,0.0,0.0,58,0.00,,,0.00,Wunderground v.1.15,2013-09-22 20:49:00,
2013-09-22 15:54:00,60.5,45.6,29.99,South,180,0.0,0.0,58,0.00,,,0.00,Wunderground v.1.15,2013-09-22 20:54:00,
2013-09-22 15:59:00,60.7,47.2,29.99,SE,137,0.0,0.0,61,0.00,,,0.00,Wunderground v.1.15,2013-09-22 20:59:00,
2013-09-22 16:05:00,61.0,47.4,29.99,ESE,111,0.0,0.0,61,0.00,,,0.00,Wunderground v.1.15,2013-09-22 21:05:00,
2013-09-22 16:11:00,61.1,45.3,29.99,SSE,147,0.0,0.0,56,0.00,,,0.00,Wunderground v.1.15,2013-09-22 21:11:00,
2013-09-22 16:16:00,61.0,45.7,29.99,SE,135,0.0,0.0,57,0.00,,,0.00,Wunderground v.1.15,2013-09-22 21:16:00,
2013-09-22 16:22:00,61.0,45.2,29.99,SE,146,0.0,0.0,56,0.00,,,0.00,Wunderground v.1.15,2013-09-22 21:22:00,
2013-09-22 16:28:00,60.9,45.6,29.99,ESE,123,0.0,0.0,57,0.00,,,0.00,Wunderground v.1.15,2013-09-22 21:28:00,
2013-09-22 16:33:00,60.7,44.4,29.99,SSW,196,0.0,0.0,55,0.00,,,0.00,Wunderground v.1.15,2013-09-22 21:33:00,
2013-09-22 16:39:00,60.9,45.6,29.99,South,169,0.0,0.0,57,0.00,,,0.00,Wunderground v.1.15,2013-09-22 21:39:00,
2013-09-22 16:44:00,61.0,45.7,29.98,SSW,202,0.0,0.0,57,0.00,,,0.00,Wunderground v.1.15,2013-09-22 21:44:00,
2013-09-22 16:50:00,61.0,45.2,29.98,SE,134,0.0,0.0,56,0.00,,,0.00,Wunderground v.1.15,2013-09-22 21:50:00,
2013-09-22 16:55:00,61.3,45.5,29.98,SE,137,0.0,0.0,56,0.00,,,0.00,Wunderground v.1.15,2013-09-22 21:55:00,
2013-09-22 17:01:00,61.4,45.6,29.98,SSE,161,0.0,0.0,56,0.00,,,0.00,Wunderground v.1.15,2013-09-22 22:01:00,
2013-09-22 17:06:00,61.1,44.8,29.98,SSE,160,0.0,0.0,55,0.00,,,0.00,Wunderground v.1.15,2013-09-22 22:06:00,
2013-09-22 17:11:00,60.9,46.0,29.98,South,178,0.0,0.0,58,0.00,,,0.00,Wunderground v.1.15,2013-09-22 22:11:00,
2013-09-22 17:17:00,60.8,44.5,29.98,SSE,154,0.0,0.0,55,0.00,,,0.00,Wunderground v.1.15,2013-09-22 22:17:00,
2013-09-22 17:23:00,60.6,44.3,29.98,SE,138,0.0,0.0,55,0.00,,,0.00,Wunderground v.1.15,2013-09-22 22:23:00,
2013-09-22 17:28:00,60.4,44.6,29.98,ESE,115,0.0,0.0,56,0.00,,,0.00,Wunderground v.1.15,2013-09-22 22:28:00,
2013-09-22 17:33:00,60.3,44.5,29.98,SE,130,0.0,0.0,56,0.00,,,0.00,Wunderground v.1.15,2013-09-22 22:33:00,
2013-09-22 17:38:00,60.3,44.5,29.98,South,171,0.0,0.0,56,0.00,,,0.00,Wunderground v.1.15,2013-09-22 22:38:00,
2013-09-22 17:44:00,60.2,45.4,29.98,SE,130,0.0,0.0,58,0.00,,,0.00,Wunderground v.1.15,2013-09-22 22:44:00,
2013-09-22 17:49:00,60.3,45.0,29.99,ESE,119,0.0,0.0,57,0.00,,,0.00,Wunderground v.1.15,2013-09-22 22:49:00,
2013-09-22 17:55:00,60.1,45.3,29.98,ESE,123,0.0,0.0,58,0.00,,,0.00,Wunderground v.1.15,2013-09-22 22:55:00,
2013-09-22 18:00:00,59.9,45.1,29.99,SSE,157,0.0,0.0,58,0.00,,,0.00,Wunderground v.1.15,2013-09-22 23:00:00,
2013-09-22 18:06:00,59.5,44.7,29.98,SE,133,0.0,0.0,58,0.00,,,0.00,Wunderground v.1.15,2013-09-22 23:06:00,
2013-09-22 18:12:00,59.1,45.2,29.99,ESE,106,0.0,0.0,60,0.00,,,0.00,Wunderground v.1.15,2013-09-22 23:12:00,
2013-09-22 18:17:00,58.8,44.9,29.99,ESE,104,0.0,0.0,60,0.00,,,0.00,Wunderground v.1.15,2013-09-22 23:17:00,
2013-09-22 18:22:00,58.5,45.1,29.99,ESE,118,0.0,0.0,61,0.00,,,0.00,Wunderground v.1.15,2013-09-22 23:22:00,
2013-09-22 18:27:00,58.2,45.2,29.99,SSE,167,0.0,0.0,62,0.00,,,0.00,Wunderground v.1.15,2013-09-22 23:27:00,
2013-09-22 18:33:00,58.1,45.6,29.99,SSE,148,0.0,0.0,63,0.00,,,0.00,Wunderground v.1.15,2013-09-22 23:33:00,
2013-09-22 18:39:00,57.8,45.7,29.99,SE,129,0.0,0.0,64,0.00,,,0.00,Wunderground v.1.15,2013-09-22 23:39:00,
2013-09-22 18:44:00,57.2,45.5,29.99,SE,142,0.0,0.0,65,0.00,,,0.00,Wunderground v.1.15,2013-09-22 23:44:00,
2013-09-22 18:50:00,55.9,45.5,29.99,SE,142,0.0,0.0,68,0.00,,,0.00,Wunderground v.1.15,2013-09-22 23:50:00,
2013-09-22 18:56:00,54.9,46.0,29.99,SE,128,0.0,0.0,72,0.00,,,0.00,Wunderground v.1.15,2013-09-22 23:56:00,
2013-09-22 19:02:00,54.1,46.3,29.99,SE,128,0.0,0.0,75,0.00,,,0.00,Wunderground v.1.15,2013-09-23 00:02:00,
2013-09-22 19:08:00,53.2,45.8,29.99,SE,128,0.0,0.0,76,0.00,,,0.00,Wunderground v.1.15,2013-09-23 00:08:00,
2013-09-22 19:13:00,52.6,45.2,30.00,ESE,115,0.0,0.0,76,0.00,,,0.00,Wunderground v.1.15,2013-09-23 00:13:00,
2013-09-22 19:19:00,52.2,44.5,30.00,ESE,120,0.0,0.0,75,0.00,,,0.00,Wunderground v.1.15,2013-09-23 00:19:00,
2013-09-22 19:25:00,52.4,44.7,30.00,ESE,121,0.0,0.0,75,0.00,,,0.00,Wunderground v.1.15,2013-09-23 00:25:00,
2013-09-22 19:30:00,52.4,44.4,30.00,ESE,121,0.0,0.0,74,0.00,,,0.00,Wunderground v.1.15,2013-09-23 00:30:00,
2013-09-22 19:36:00,52.4,44.7,30.00,ESE,117,0.0,0.0,75,0.00,,,0.00,Wunderground v.1.15,2013-09-23 00:36:00,
2013-09-22 19:41:00,52.3,44.6,30.00,ESE,117,0.0,0.0,75,0.00,,,0.00,Wunderground v.1.15,2013-09-23 00:41:00,
2013-09-22 19:46:00,52.2,44.5,30.00,ESE,117,0.0,0.0,75,0.00,,,0.00,Wunderground v.1.15,2013-09-23 00:46:00,
2013-09-22 19:51:00,52.0,44.3,30.00,SE,124,0.0,0.0,75,0.00,,,0.00,Wunderground v.1.15,2013-09-23 00:51:00,
2013-09-22 19:57:00,51.7,44.0,30.00,ESE,118,0.0,0.0,75,0.00,,,0.00,Wunderground v.1.15,2013-09-23 00:57:00,
2013-09-22 20:03:00,51.4,44.1,30.01,ESE,123,0.0,0.0,76,0.00,,,0.00,Wunderground v.1.15,2013-09-23 01:03:00,
2013-09-22 20:08:00,51.2,43.9,30.01,ESE,118,0.0,0.0,76,0.00,,,0.00,Wunderground v.1.15,2013-09-23 01:08:00,
2013-09-22 20:14:00,50.9,43.9,30.01,ESE,107,0.0,0.0,77,0.00,,,0.00,Wunderground v.1.15,2013-09-23 01:14:00,
2013-09-22 20:20:00,50.6,44.0,30.01,ESE,123,0.0,0.0,78,0.00,,,0.00,Wunderground v.1.15,2013-09-23 01:20:00,
2013-09-22 20:26:00,50.5,43.9,30.01,ESE,121,0.0,0.0,78,0.00,,,0.00,Wunderground v.1.15,2013-09-23 01:26:00,
2013-09-22 20:32:00,50.2,43.6,30.01,ESE,123,0.0,0.0,78,0.00,,,0.00,Wunderground v.1.15,2013-09-23 01:32:00,
2013-09-22 20:37:00,50.0,43.7,30.01,East,100,0.0,0.0,79,0.00,,,0.00,Wunderground v.1.15,2013-09-23 01:37:00,
2013-09-22 20:43:00,49.8,43.5,30.02,SE,136,0.0,0.0,79,0.00,,,0.00,Wunderground v.1.15,2013-09-23 01:43:00,
2013-09-22 20:49:00,49.7,43.5,30.02,ESE,117,0.0,0.0,79,0.00,,,0.00,Wunderground v.1.15,2013-09-23 01:49:00,
2013-09-22 20:54:00,49.6,43.7,30.02,SE,125,0.0,0.0,80,0.00,,,0.00,Wunderground v.1.15,2013-09-23 01:54:00,
2013-09-22 21:00:00,49.4,43.5,30.03,ESE,108,0.0,0.0,80,0.00,,,0.00,Wunderground v.1.15,2013-09-23 02:00:00,
2013-09-22 21:06:00,49.3,43.4,30.02,ESE,120,0.0,0.0,80,0.00,,,0.00,Wunderground v.1.15,2013-09-23 02:06:00,
2013-09-22 21:11:00,49.1,43.5,30.03,ESE,113,0.0,0.0,81,0.00,,,0.00,Wunderground v.1.15,2013-09-23 02:11:00,
2013-09-22 21:17:00,48.9,43.3,30.02,ESE,113,0.0,0.0,81,0.00,,,0.00,Wunderground v.1.15,2013-09-23 02:17:00,
2013-09-22 21:22:00,48.7,43.1,30.02,SE,129,0.0,0.0,81,0.00,,,0.00,Wunderground v.1.15,2013-09-23 02:22:00,
2013-09-22 21:28:00,48.6,43.4,30.03,ESE,119,0.0,0.0,82,0.00,,,0.00,Wunderground v.1.15,2013-09-23 02:28:00,
2013-09-22 21:34:00,48.5,43.3,30.03,SE,139,0.0,0.0,82,0.00,,,0.00,Wunderground v.1.15,2013-09-23 02:34:00,
2013-09-22 21:39:00,48.4,43.2,30.03,ESE,106,0.0,0.0,82,0.00,,,0.00,Wunderground v.1.15,2013-09-23 02:39:00,
2013-09-22 21:45:00,48.3,43.4,30.03,ESE,109,0.0,0.0,83,0.00,,,0.00,Wunderground v.1.15,2013-09-23 02:45:00,
2013-09-22 21:51:00,48.1,43.2,30.03,SE,132,0.0,0.0,83,0.00,,,0.00,Wunderground v.1.15,2013-09-23 02:51:00,
2013-09-22 21:56:00,48.0,43.4,30.03,SE,132,0.0,0.0,84,0.00,,,0.00,Wunderground v.1.15,2013-09-23 02:56:00,
2013-09-22 22:02:00,47.8,43.2,30.03,ESE,123,0.0,0.0,84,0.00,,,0.00,Wunderground v.1.15,2013-09-23 03:02:00,
2013-09-22 22:08:00,47.7,43.1,30.03,SE,129,0.0,0.0,84,0.00,,,0.00,Wunderground v.1.15,2013-09-23 03:08:00,
2013-09-22 22:13:00,47.6,43.3,30.03,ESE,114,0.0,0.0,85,0.00,,,0.00,Wunderground v.1.15,2013-09-23 03:13:00,
2013-09-22 22:19:00,47.4,43.1,30.03,ESE,117,0.0,0.0,85,0.00,,,0.00,Wunderground v.1.15,2013-09-23 03:19:00,
2013-09-22 22:24:00,47.2,43.2,30.04,ESE,113,0.0,0.0,86,0.00,,,0.00,Wunderground v.1.15,2013-09-23 03:24:00,
2013-09-22 22:30:00,47.0,43.0,30.04,SSE,159,0.0,0.0,86,0.00,,,0.00,Wunderground v.1.15,2013-09-23 03:30:00,
2013-09-22 22:36:00,46.9,42.9,30.04,SE,132,0.0,0.0,86,0.00,,,0.00,Wunderground v.1.15,2013-09-23 03:36:00,
2013-09-22 22:42:00,46.7,42.7,30.04,SSE,151,0.0,0.0,86,0.00,,,0.00,Wunderground v.1.15,2013-09-23 03:42:00,
2013-09-22 22:48:00,46.5,42.5,30.04,ESE,102,0.0,0.0,86,0.00,,,0.00,Wunderground v.1.15,2013-09-23 03:48:00,
2013-09-22 22:53:00,46.4,42.7,30.04,ESE,118,0.0,0.0,87,0.00,,,0.00,Wunderground v.1.15,2013-09-23 03:53:00,
2013-09-22 22:59:00,46.1,42.4,30.04,ESE,123,0.0,0.0,87,0.00,,,0.00,Wunderground v.1.15,2013-09-23 03:59:00,
2013-09-22 23:01:00,46.1,42.4,30.04,ESE,109,0.0,0.0,87,0.00,,,0.00,Wunderground v.1.15,2013-09-23 04:01:00,
2013-09-22 23:03:00,46.1,42.4,30.04,ESE,115,0.0,0.0,87,0.00,,,0.00,Wunderground v.1.15,2013-09-23 04:03:00,
2013-09-22 23:05:00,46.0,42.6,30.04,SE,138,0.0,0.0,88,0.00,,,0.00,Wunderground v.1.15,2013-09-23 04:05:00,
2013-09-22 23:06:00,46.0,42.6,30.04,ESE,105,0.0,0.0,88,0.00,,,0.00,Wunderground v.1.15,2013-09-23 04:06:00,
2013-09-22 23:08:00,45.9,42.5,30.04,SE,132,0.0,0.0,88,0.00,,,0.00,Wunderground v.1.15,2013-09-23 04:08:00,
2013-09-22 23:14:00,45.8,42.4,30.04,ESE,111,0.0,0.0,88,0.00,,,0.00,Wunderground v.1.15,2013-09-23 04:14:00,
2013-09-22 23:19:00,45.6,42.3,30.04,ESE,117,0.0,0.0,88,0.00,,,0.00,Wunderground v.1.15,2013-09-23 04:19:00,
2013-09-22 23:25:00,45.5,42.2,30.04,SE,124,0.0,0.0,88,0.00,,,0.00,Wunderground v.1.15,2013-09-23 04:25:00,
2013-09-22 23:30:00,45.4,42.1,30.04,SE,126,0.0,0.0,88,0.00,,,0.00,Wunderground v.1.15,2013-09-23 04:30:00,
2013-09-22 23:36:00,45.2,42.2,30.04,SE,134,0.0,0.0,89,0.00,,,0.00,Wunderground v.1.15,2013-09-23 04:36:00,
2013-09-22 23:42:00,45.1,42.1,30.04,SE,126,0.0,0.0,89,0.00,,,0.00,Wunderground v.1.15,2013-09-23 04:42:00,
2013-09-22 23:48:00,45.0,42.0,30.04,ESE,117,0.0,0.0,89,0.00,,,0.00,Wunderground v.1.15,2013-09-23 04:48:00,
2013-09-22 23:53:00,44.9,41.9,30.04,SE,128,0.0,0.0,89,0.00,,,0.00,Wunderground v.1.15,2013-09-23 04:53:00,
2013-09-22 23:59:00,44.9,41.9,30.05,SE,128,0.0,0.0,89,0.00,,,0.00,Wunderground v.1.15,2013-09-23 04:59:00,